DW1009 Weather Reports


Display with metric or nautical units.
time (UTC)temp
F
wind
direction
speed
MPH
gust
MPH
rain 1hr
in
rain 24hr
in
rain mn
in
humidity
%
barometer
mb
20260508002348 65 240 6.0 8.0 0.00 0.00 0.00 86 1011.8
20260508001349 66 257 4.0 9.0 0.00 0.00 0.00 86 1011.9
20260508000350 66 285 3.0 7.0 0.00 0.00 0.00 85 1011.9
20260507235349 66 223 6.0 8.0 0.00 0.00 0.00 85 1011.9
20260507234349 66 283 4.0 8.0 0.00 0.00 0.00 85 1012.0
20260507233349 66 163 1.0 7.0 0.00 0.00 0.00 85 1012.0
20260507225348 68 303 5.0 8.0 0.00 0.00 0.00 84 1012.2
20260507223348 66 240 5.0 9.0 0.00 0.00 0.00 85 1012.4
20260507222348 67 243 4.0 10.0 0.00 0.00 0.00 83 1012.7
20260507221348 67 234 5.0 9.0 0.00 0.00 0.00 83 1012.8
20260507220348 67 270 1.0 8.0 0.00 0.00 0.00 84 1012.8
20260507214348 67 183 4.0 9.0 0.00 0.00 0.00 83 1012.9
20260507213348 66 230 1.0 9.0 0.00 0.00 0.00 84 1012.9
20260507212348 66 261 8.0 11.0 0.00 0.00 0.00 85 1012.9
20260507205348 66 251 5.0 9.0 0.00 0.00 0.00 84 1013.3
20260507204349 66 206 4.0 12.0 0.00 0.00 0.00 85 1013.4
20260507201348 66 242 3.0 9.0 0.00 0.00 0.00 84 1013.7
20260507200348 65 277 3.0 9.0 0.00 0.00 0.00 85 1013.8
20260507195348 65 227 5.0 11.0 0.00 0.00 0.00 85 1013.9
20260507194348 65 222 2.0 9.0 0.00 0.00 0.00 85 1013.9
20260507193348 66 228 2.0 9.0 0.00 0.00 0.00 84 1014.1
20260507192348 65 234 9.0 9.0 0.00 0.00 0.00 85 1014.2
20260507190348 65 212 4.0 7.0 0.00 0.00 0.00 85 1014.2
20260507185348 65 346 3.0 8.0 0.00 0.00 0.00 85 1014.2
20260507184348 65 214 6.0 8.0 0.00 0.00 0.00 85 1014.2
20260507183348 65 225 5.0 6.0 0.00 0.00 0.00 85 1014.2
20260507182348 65 204 3.0 8.0 0.00 0.00 0.00 85 1014.2
20260507181348 65 292 2.0 7.0 0.00 0.00 0.00 86 1014.3
20260507180348 65 245 3.0 7.0 0.00 0.00 0.00 86 1014.3
20260507175348 65 241 4.0 7.0 0.00 0.00 0.00 86 1014.3
20260507174348 64 229 4.0 8.0 0.00 0.00 0.00 86 1014.3
20260507173348 64 205 2.0 6.0 0.00 0.00 0.00 86 1014.5
20260507172348 64 232 3.0 4.0 0.00 0.00 0.00 87 1014.3
20260507171348 64 219 3.0 6.0 0.00 0.00 0.00 87 1014.3
20260507170348 63 232 4.0 5.0 0.00 0.00 0.00 88 1014.3
20260507165348 63 223 5.0 5.0 0.00 0.00 0.00 88 1014.5
20260507164348 63 265 1.0 6.0 0.00 0.00 0.00 88 1014.4
20260507162347 63 275 2.0 4.0 0.00 0.00 0.00 89 1014.6
20260507161348 63 234 2.0 4.0 0.00 0.00 0.00 89 1014.5
20260507160348 62 248 1.0 4.0 0.00 0.00 0.00 90 1014.5
20260507155348 62 207 3.0 4.0 0.00 0.00 0.00 90 1014.5
20260507154348 62 271 2.0 5.0 0.00 0.00 0.00 89 1014.5
20260507153347 62 294 1.0 3.0 0.00 0.00 0.00 90 1014.6
20260507152348 62 150 1.0 4.0 0.00 0.00 0.00 91 1014.6
20260507151348 61 286 2.0 5.0 0.00 0.00 0.00 92 1014.8
20260507150347 61 222 5.0 5.0 0.00 0.00 0.00 93 1014.7
20260507145348 61 246 1.0 4.0 0.00 0.00 0.00 93 1014.6
20260507144347 61 298 3.0 4.0 0.00 0.00 0.00 94 1014.5
20260507143347 61 238 3.0 4.0 0.00 0.00 0.00 94 1014.4
20260507142349 60 289 0.0 3.0 0.00 0.00 0.00 95 1014.4
20260507140347 60 218 0.0 2.0 0.00 0.00 0.00 95 1014.2
20260507135348 59 280 1.0 3.0 0.00 0.00 0.00 95 1014.2
20260507134347 59 223 1.0 3.0 0.00 0.00 0.00 96 1014.0
20260507133347 58 235 2.0 2.0 0.00 0.00 0.00 95 1014.0
20260507132348 58 240 0.0 1.0 0.00 0.00 0.00 95 1013.9
20260507131347 57 240 0.0 1.0 0.00 0.00 0.00 94 1013.8
20260507130347 57 240 0.0 0.0 0.00 0.00 0.00 93 1013.7
20260507125347 57 240 0.0 0.0 0.00 0.00 0.00 93 1013.6
20260507124347 57 240 0.0 1.0 0.00 0.00 0.00 93 1013.6
20260507123348 57 240 0.0 1.0 0.00 0.00 0.00 93 1013.7
20260507122347 57 240 0.0 0.0 0.00 0.00 0.00 93 1013.7
20260507121348 58 240 0.0 0.0 0.00 0.00 0.00 93 1013.7
20260507120347 58 240 0.0 0.0 0.00 0.00 0.00 93 1013.7
20260507115347 58 240 0.0 0.0 0.00 0.00 0.00 93 1013.8
20260507114349 58 240 0.0 0.0 0.00 0.00 0.00 93 1013.7
20260507113347 59 240 0.0 1.0 0.00 0.00 0.00 93 1013.8
20260507111348 59 220 1.0 1.0 0.00 0.00 0.00 94 1013.9
20260507110347 59 209 0.0 1.0 0.00 0.00 0.00 94 1013.8
20260507105347 59 205 0.0 1.0 0.00 0.00 0.00 94 1013.9
20260507104347 60 204 0.0 2.0 0.00 0.00 0.00 94 1014.0
20260507103347 59 207 0.0 1.0 0.00 0.00 0.00 94 1014.0
20260507102347 59 192 0.0 2.0 0.00 0.00 0.00 94 1014.1
20260507101347 59 267 0.0 2.0 0.00 0.00 0.00 93 1014.1
20260507100347 59 275 0.0 0.0 0.00 0.00 0.00 92 1014.2
20260507095347 59 275 0.0 0.0 0.00 0.00 0.00 92 1014.2
20260507094347 59 275 0.0 0.0 0.00 0.00 0.00 92 1014.2
20260507092347 60 275 0.0 2.0 0.00 0.00 0.00 92 1014.4
20260507091347 60 268 1.0 1.0 0.00 0.00 0.00 92 1014.4
20260507090347 60 267 0.0 3.0 0.00 0.00 0.00 92 1014.5
20260507085347 60 296 0.0 1.0 0.00 0.00 0.00 92 1014.6
20260507084347 60 245 0.0 2.0 0.00 0.00 0.00 92 1014.7
20260507083347 60 209 2.0 3.0 0.00 0.00 0.00 92 1014.8
20260507082347 60 257 1.0 3.0 0.00 0.00 0.00 92 1014.9
20260507081347 60 355 1.0 3.0 0.00 0.00 0.00 92 1014.9
20260507080347 60 258 0.0 3.0 0.00 0.00 0.00 92 1014.9
20260507075347 60 286 0.0 4.0 0.00 0.00 0.00 92 1015.0
20260507074347 60 217 2.0 3.0 0.00 0.00 0.00 92 1015.1
20260507073347 60 244 0.0 4.0 0.00 0.00 0.00 92 1015.2
20260507072347 60 234 3.0 5.0 0.00 0.00 0.00 92 1015.1
20260507071347 60 259 2.0 5.0 0.00 0.00 0.00 93 1015.1
20260507070347 60 271 2.0 5.0 0.00 0.00 0.00 93 1015.1
20260507065347 60 270 1.0 2.0 0.00 0.00 0.00 94 1015.1
20260507064347 60 259 0.0 2.0 0.00 0.00 0.00 94 1015.2
20260507063347 60 297 1.0 2.0 0.00 0.00 0.00 93 1015.3
20260507062347 60 265 0.0 3.0 0.00 0.00 0.00 93 1015.3
20260507061347 60 298 1.0 3.0 0.00 0.00 0.00 93 1015.3
20260507060347 60 282 1.0 3.0 0.00 0.00 0.00 93 1015.3
20260507055348 60 344 0.0 4.0 0.00 0.00 0.00 93 1015.4
20260507054347 60 346 1.0 3.0 0.00 0.00 0.00 93 1015.3
20260507053346 60 242 1.0 3.0 0.00 0.00 0.00 93 1015.3
20260507052347 60 255 1.0 4.0 0.00 0.00 0.00 93 1015.4
20260507050348 61 246 1.0 3.0 0.00 0.00 0.00 92 1015.4
20260507045347 61 272 2.0 3.0 0.00 0.00 0.00 91 1015.3
20260507043346 61 342 2.0 4.0 0.00 0.00 0.00 91 1015.2
20260507042347 61 169 1.0 6.0 0.00 0.00 0.00 90 1015.2
20260507041347 62 267 3.0 6.0 0.00 0.00 0.00 91 1015.1
20260507040346 62 262 3.0 6.0 0.00 0.00 0.00 90 1015.0
20260507035347 62 238 1.0 8.0 0.00 0.00 0.00 90 1014.9
20260507034347 62 336 2.0 5.0 0.00 0.00 0.00 90 1014.7
20260507033346 62 340 0.0 5.0 0.00 0.00 0.00 90 1014.6
20260507031346 62 340 3.0 8.0 0.00 0.00 0.00 89 1014.5
20260507030347 62 281 2.0 9.0 0.00 0.00 0.00 88 1014.4
20260507025347 63 129 1.0 10.0 0.00 0.00 0.00 88 1014.3
20260507023347 63 195 1.0 4.0 0.00 0.00 0.00 87 1014.2
20260507022347 64 260 1.0 4.0 0.00 0.00 0.00 86 1014.1
20260507021346 64 270 2.0 7.0 0.00 0.00 0.00 85 1014.1
20260507020346 64 306 1.0 7.0 0.00 0.00 0.00 84 1014.1
20260507015346 65 269 1.0 7.0 0.00 0.00 0.00 84 1014.1
20260507014346 65 277 2.0 8.0 0.00 0.00 0.00 83 1014.0
20260507013346 66 272 2.0 5.0 0.00 0.00 0.00 83 1014.1
20260507011346 66 309 3.0 7.0 0.00 0.00 0.00 83 1014.1
20260507005346 66 192 1.0 7.0 0.00 0.00 0.00 83 1014.0